Location: Detroit
(42.3310°N, 83.0460°W)
Time: 15:40:39
(UTC-04:00)

Courier 1B Rocket - Pass Details

Date: 26 April 2024
Orbit: 920 x 1201 km, 28.2° (Epoch: 19 May)

Event Time Altitude Azimuth Distance (km) Brightness Sun altitude
Exits shadow 04:35:36 25° 197° (SSW) 2,194 6.3 -19.6°
Maximum altitude 04:37:24 27° 176° (S) 2,083 6.4 -19.3°
Drops below altitude 10° 04:43:30 10° 122° (ESE) 3,033 7.8 -18.5°
Sets 04:46:41 0° 110° (ESE) 3,953 8.6 -18.0°
